Tracking 33404 objects as of 6-Mar-2026
HD Live streaming from Space Station
objects crossing your sky now

STARLINK-35399

Track STARLINK-35399 now!
10-day predictions
STARLINK-35399 is classified as:


NORAD ID: 66029
Int'l Code: 2025-232AA
Perigee: 481.4 km
Apogee: 483.2 km
Inclination: 53.2 °
Period: 94.1 minutes
Semi major axis: 6853 km
RCS: Unknown
Launch date: October 16, 2025
Source: United States (US)
Launch site: AIR FORCE EASTERN TEST RANGE (AFETR)
Your satellite tracking list
Your tracking list is empty




NASA's NSSDC Master Catalog

Two Line Element Set (TLE):
1 66029U 25232AA  26065.17285721  .00022576  00000-0  77172-3 0  9998
2 66029  53.1574 120.4835 0001340  80.6151 279.5002 15.30213030 22896
Source of the keplerian elements: AFSPC